Tracking 32418 objects as of 9-Dec-2025
HD Live streaming from Space Station
objects crossing your sky now

STARLINK-31786

Track STARLINK-31786 now!
10-day predictions
STARLINK-31786 is classified as:


NORAD ID: 59771
Int'l Code: 2024-091U
Perigee: 481.4 km
Apogee: 483.2 km
Inclination: 53.2 °
Period: 94.1 minutes
Semi major axis: 6853 km
RCS: Unknown
Launch date: May 14, 2024
Source: United States (US)
Launch site: AIR FORCE WESTERN TEST RANGE (AFWTR)
Your satellite tracking list
Your tracking list is empty




NASA's NSSDC Master Catalog

Two Line Element Set (TLE):
1 59771U 24091U   25342.71825876  .00016519  00000-0  56818-3 0  9998
2 59771  53.1591  89.6248 0001301  83.2678 276.8471 15.30225100 89079
Source of the keplerian elements: AFSPC